Home   Weather   The Hague   Past weeks

Flag for Netherlands Past Weather in The Hague, Netherlands — Yesterday and Last 2 Weeks

Now
70 °F

Mild.


Feels Like: 70 °F
Forecast: 63 / 67 °F
Wind: 20 mph from Southwest

Location: Rotterdam Zestienhoven Airport

Current Time: Sep 28, 2016 at 2:00:07 PM

Latest Report: Sep 28, 2016 at 1:25 PM


Visibility: N/A

Pressure: 30.21 "Hg

Humidity: 60%

Dew Point: 55 °F

Location of The HagueLocation

Past Weather in The Hague — Graph

°F

The Hague Temperature Yesterday

Maximum temperature yesterday: 72 °F (at 3:55 PM)
Minimum temperature yesterday: 45 °F (at 3:25 AM)
Average temperature yesterday: 59 °F

High & Low Weather Summary for the Past Weeks

 TemperatureHumidityPressure
High90 °F (Sep 13, 3:25 PM)100% (Sep 14, 11:55 PM)30.30 "Hg (Sep 14, 11:55 PM)
Low45 °F (Sep 27, 3:25 AM)36% (Sep 13, 3:25 PM)29.77 "Hg (Sep 15, 3:25 PM)
Average64 °F76%30.06 "Hg
* Reported Sep 13 12:25 PM — Sep 28 12:25 PM, The Hague, Weather by CustomWeather, © 2016

Note: Actual official high and low records may vary slightly from our data, if they occured in-between our weather recording intervals... More about our weather records

Advertising

The Hague Weather History for the Previous 24 Hours

Scroll right to see more
 ConditionsComfort  
Time TempWeatherWind HumidityBarometerVisibility
12:25 PM
Wed, Sep 28
68 °FMild.17 mph64%30.21 "HgN/A
11:55 AM68 °FMild.16 mph69%30.21 "HgN/A
11:25 AM68 °FPartly sunny.17 mph73%30.24 "HgN/A
10:55 AM66 °FPassing clouds.16 mph78%30.21 "HgN/A
10:25 AM66 °FPassing clouds.17 mph78%30.21 "HgN/A
9:55 AM64 °FPassing clouds.20 mph83%30.21 "HgN/A
9:25 AM64 °FPassing clouds.14 mph83%30.21 "HgN/A
8:55 AM64 °FPassing clouds.14 mph83%30.21 "HgN/A
8:25 AM63 °FScattered clouds.14 mph88%30.21 "HgN/A
7:55 AM64 °FScattered clouds.16 mph88%30.21 "HgN/A
7:25 AM64 °FPassing clouds.16 mph88%30.21 "HgN/A
6:55 AM64 °FPartly cloudy.15 mph88%30.18 "HgN/A
6:25 AM64 °FPartly cloudy.14 mph88%30.18 "HgN/A
5:55 AM63 °FPartly cloudy.14 mph94%30.18 "HgN/A
5:25 AM64 °FMostly cloudy.15 mph88%30.18 "HgN/A
4:55 AM64 °FMostly cloudy.16 mph88%30.18 "Hg6 mi
4:25 AM64 °FOvercast.13 mph88%30.18 "HgN/A
3:55 AM63 °FOvercast.13 mph94%30.21 "HgN/A
3:25 AM63 °FPassing clouds.12 mph88%30.21 "HgN/A
2:55 AM63 °FDrizzle. Mostly cloudy.9 mph94%30.21 "Hg4 mi
1:55 AM61 °FDrizzle. Mostly cloudy.12 mph94%30.21 "Hg3 mi
1:25 AM63 °FDrizzle. Mostly cloudy.15 mph83%30.21 "Hg5 mi
12:55 AM64 °FPartly cloudy.13 mph68%30.24 "HgN/A
12:25 AM64 °FMostly cloudy.13 mph73%30.24 "HgN/A
11:55 PM
Tue, Sep 27
64 °FMostly cloudy.12 mph60%30.24 "HgN/A
11:25 PM64 °FPartly cloudy.13 mph60%30.24 "HgN/A
10:55 PM64 °FClear.12 mph60%30.24 "HgN/A
10:25 PM64 °FPartly cloudy.13 mph56%30.24 "HgN/A
9:55 PM64 °FOvercast.14 mph56%30.24 "HgN/A
9:25 PM64 °FPassing clouds.10 mph56%30.24 "HgN/A
8:55 PM64 °FClear.9 mph56%30.24 "HgN/A
8:25 PM64 °FClear.9 mph56%30.24 "HgN/A
7:55 PM66 °FClear.9 mph52%30.24 "HgN/A
7:25 PM66 °FClear.10 mph52%30.24 "HgN/A
6:55 PM66 °FClear.12 mph49%30.24 "HgN/A
6:25 PM68 °FClear.10 mph49%30.24 "HgN/A
5:55 PM68 °FClear.13 mph46%30.24 "HgN/A
5:25 PM68 °FClear.13 mph43%30.24 "HgN/A
4:55 PM70 °FMild.14 mph43%30.24 "HgN/A
4:25 PM70 °FMild.14 mph40%30.24 "HgN/A
3:55 PM72 °FMild.14 mph36%30.24 "HgN/A
3:25 PM70 °FClear.13 mph40%30.24 "HgN/A
2:55 PM70 °FClear.13 mph40%30.27 "HgN/A
2:25 PM70 °FMild.13 mph43%30.27 "HgN/A
Weather by CustomWeather, © 2016

See weather overviewHow to use our weather pages